Time,TemperatureF,DewpointF,PressureIn,WindDirection,WindDirectionDegrees,WindSpeedMPH,WindSpeedGustMPH,Humidity,HourlyPrecipIn,Conditions,Clouds,dailyrainin,SoftwareType,DateUTC
2013-03-08 00:02:00,30.0,28.0,30.02,North,354,7.0,-999.0,91,-99.99,,,-99.99,,2013-03-08 05:02:00,
2013-03-08 00:12:00,30.0,28.0,30.02,North,354,7.0,-999.0,91,-99.99,,,-99.99,,2013-03-08 05:12:00,
2013-03-08 00:22:00,30.0,28.0,30.01,NNE,14,5.0,-999.0,91,-99.99,,,-99.99,,2013-03-08 05:22:00,
2013-03-08 00:33:00,30.0,28.0,30.01,NNE,31,6.0,-999.0,91,-99.99,,,-99.99,,2013-03-08 05:33:00,
2013-03-08 00:42:00,30.0,28.0,30.01,NNE,31,6.0,-999.0,91,-99.99,,,-99.99,,2013-03-08 05:42:00,
2013-03-08 00:52:00,30.0,28.0,30.01,NNW,335,7.0,-999.0,91,-99.99,,,-99.99,,2013-03-08 05:52:00,
2013-03-08 01:02:00,30.0,28.0,30.02,NNE,23,5.0,-999.0,91,-99.99,,,-99.99,,2013-03-08 06:02:00,
2013-03-08 01:11:00,30.0,28.0,30.02,NNE,23,5.0,-999.0,91,-99.99,,,-99.99,,2013-03-08 06:11:00,
2013-03-08 01:22:00,30.0,28.0,30.02,NNE,31,5.0,-999.0,91,-99.99,,,-99.99,,2013-03-08 06:22:00,
2013-03-08 01:32:00,30.0,28.0,30.02,NE,51,6.0,-999.0,92,-99.99,,,-99.99,,2013-03-08 06:32:00,
2013-03-08 01:42:00,30.0,28.0,30.02,NE,51,6.0,-999.0,92,-99.99,,,-99.99,,2013-03-08 06:42:00,
2013-03-08 01:52:00,30.0,28.0,30.02,NE,51,6.0,-999.0,92,-99.99,,,-99.99,,2013-03-08 06:52:00,
2013-03-08 02:01:00,30.0,28.0,30.01,NNE,21,6.0,-999.0,92,-99.99,,,-99.99,,2013-03-08 07:01:00,
2013-03-08 02:11:00,30.0,28.0,30.01,NNE,21,6.0,-999.0,92,-99.99,,,-99.99,,2013-03-08 07:11:00,
2013-03-08 02:22:00,30.0,28.0,30.00,NNE,24,6.0,-999.0,92,-99.99,,,-99.99,,2013-03-08 07:22:00,
2013-03-08 02:32:00,30.0,28.0,30.00,NE,40,5.0,-999.0,92,-99.99,,,-99.99,,2013-03-08 07:32:00,
2013-03-08 02:42:00,30.0,28.0,30.00,NE,40,5.0,-999.0,92,-99.99,,,-99.99,,2013-03-08 07:42:00,
2013-03-08 02:51:00,30.0,28.0,29.99,NNW,332,6.0,-999.0,92,-99.99,,,-99.99,,2013-03-08 07:51:00,
2013-03-08 03:01:00,30.0,28.0,29.98,NE,35,5.0,-999.0,92,-99.99,,,-99.99,,2013-03-08 08:01:00,
2013-03-08 03:11:00,30.0,28.0,29.98,NE,35,5.0,-999.0,92,-99.99,,,-99.99,,2013-03-08 08:11:00,
2013-03-08 03:22:00,29.0,27.0,29.98,NE,47,5.0,-999.0,92,-99.99,,,-99.99,,2013-03-08 08:22:00,
2013-03-08 03:32:00,29.0,27.0,29.98,NE,35,5.0,-999.0,92,-99.99,,,-99.99,,2013-03-08 08:32:00,
2013-03-08 03:42:00,29.0,27.0,29.98,NE,35,5.0,-999.0,92,-99.99,,,-99.99,,2013-03-08 08:42:00,
2013-03-08 03:52:00,29.0,27.0,29.97,NNE,21,6.0,-999.0,92,-99.99,,,-99.99,,2013-03-08 08:52:00,
2013-03-08 04:03:00,29.0,27.0,29.97,NE,35,5.0,-999.0,92,-99.99,,,-99.99,,2013-03-08 09:03:00,
2013-03-08 04:11:00,29.0,27.0,29.97,NE,35,5.0,-999.0,92,-99.99,,,-99.99,,2013-03-08 09:11:00,
2013-03-08 04:22:00,29.0,27.0,29.97,NE,54,5.0,-999.0,92,-99.99,,,-99.99,,2013-03-08 09:22:00,
2013-03-08 04:32:00,29.0,27.0,29.98,NNE,23,7.0,-999.0,92,-99.99,,,-99.99,,2013-03-08 09:32:00,
2013-03-08 04:42:00,29.0,27.0,29.98,NNE,23,7.0,-999.0,92,-99.99,,,-99.99,,2013-03-08 09:42:00,
2013-03-08 04:52:00,29.0,27.0,29.98,NE,35,5.0,-999.0,92,-99.99,,,-99.99,,2013-03-08 09:52:00,
2013-03-08 05:01:00,29.0,27.0,29.98,ENE,66,7.0,-999.0,92,-99.99,,,-99.99,,2013-03-08 10:01:00,
2013-03-08 05:11:00,29.0,27.0,29.98,ENE,66,7.0,-999.0,92,-99.99,,,-99.99,,2013-03-08 10:11:00,
2013-03-08 05:21:00,29.0,27.0,29.97,NW,310,6.0,-999.0,92,-99.99,,,-99.99,,2013-03-08 10:21:00,
2013-03-08 05:32:00,29.0,27.0,29.97,NNE,13,7.0,-999.0,92,-99.99,,,-99.99,,2013-03-08 10:32:00,
2013-03-08 05:42:00,29.0,27.0,29.97,NNE,13,7.0,-999.0,92,-99.99,,,-99.99,,2013-03-08 10:42:00,
2013-03-08 05:52:00,29.0,27.0,29.97,NE,47,4.0,-999.0,92,-99.99,,,-99.99,,2013-03-08 10:52:00,
2013-03-08 06:01:00,29.0,27.0,29.97,NE,48,5.0,-999.0,92,-99.99,,,-99.99,,2013-03-08 11:01:00,
2013-03-08 06:11:00,29.0,27.0,29.97,NE,48,5.0,-999.0,92,-99.99,,,-99.99,,2013-03-08 11:11:00,
2013-03-08 06:22:00,29.0,27.0,29.97,NNE,18,5.0,-999.0,92,-99.99,,,-99.99,,2013-03-08 11:22:00,
2013-03-08 06:32:00,29.0,27.0,29.97,NE,35,5.0,-999.0,92,-99.99,,,-99.99,,2013-03-08 11:32:00,
2013-03-08 06:42:00,29.0,27.0,29.97,NE,35,5.0,-999.0,92,-99.99,,,-99.99,,2013-03-08 11:42:00,
2013-03-08 06:52:00,29.0,27.0,29.98,NE,37,4.0,-999.0,92,-99.99,,,-99.99,,2013-03-08 11:52:00,
2013-03-08 07:02:00,29.0,27.0,29.98,NE,50,5.0,-999.0,92,-99.99,,,-99.99,,2013-03-08 12:02:00,
2013-03-08 07:11:00,29.0,27.0,29.98,NE,50,5.0,-999.0,92,-99.99,,,-99.99,,2013-03-08 12:11:00,
2013-03-08 07:22:00,29.0,27.0,29.98,NE,44,5.0,-999.0,92,-99.99,,,-99.99,,2013-03-08 12:22:00,
2013-03-08 07:32:00,29.0,27.0,29.98,NNE,24,4.0,-999.0,92,-99.99,,,-99.99,,2013-03-08 12:32:00,
2013-03-08 07:43:00,29.0,27.0,29.98,NNE,24,4.0,-999.0,92,-99.99,,,-99.99,,2013-03-08 12:43:00,
2013-03-08 07:52:00,29.0,27.0,29.98,NE,45,4.0,-999.0,92,-99.99,,,-99.99,,2013-03-08 12:52:00,
2013-03-08 08:02:00,29.0,27.0,29.98,NNE,24,4.0,-999.0,92,-99.99,,,-99.99,,2013-03-08 13:02:00,
2013-03-08 08:11:00,29.0,27.0,29.98,NNE,24,4.0,-999.0,92,-99.99,,,-99.99,,2013-03-08 13:11:00,
2013-03-08 08:22:00,29.0,27.0,29.99,NE,41,4.0,-999.0,92,-99.99,,,-99.99,,2013-03-08 13:22:00,
2013-03-08 08:32:00,29.0,27.0,29.99,NNE,31,5.0,-999.0,92,-99.99,,,-99.99,,2013-03-08 13:32:00,
2013-03-08 08:42:00,29.0,27.0,29.99,NNE,31,5.0,-999.0,92,-99.99,,,-99.99,,2013-03-08 13:42:00,
2013-03-08 08:52:00,29.0,27.0,29.99,North,349,5.0,-999.0,92,-99.99,,,-99.99,,2013-03-08 13:52:00,
2013-03-08 09:03:00,29.0,27.0,30.00,NE,54,7.0,-999.0,92,-99.99,,,-99.99,,2013-03-08 14:03:00,
2013-03-08 09:12:00,29.0,27.0,30.00,NE,54,7.0,-999.0,92,-99.99,,,-99.99,,2013-03-08 14:12:00,
2013-03-08 09:22:00,29.0,27.0,30.00,NNE,14,6.0,-999.0,92,-99.99,,,-99.99,,2013-03-08 14:22:00,
2013-03-08 09:32:00,29.0,27.0,30.00,NE,50,5.0,-999.0,93,-99.99,,,-99.99,,2013-03-08 14:32:00,
2013-03-08 09:42:00,29.0,27.0,30.00,NE,50,5.0,-999.0,93,-99.99,,,-99.99,,2013-03-08 14:42:00,
2013-03-08 09:52:00,30.0,28.0,30.00,NE,52,6.0,-999.0,93,-99.99,,,-99.99,,2013-03-08 14:52:00,
2013-03-08 10:03:00,30.0,28.0,30.00,NW,325,6.0,-999.0,92,-99.99,,,-99.99,,2013-03-08 15:03:00,
2013-03-08 10:12:00,30.0,28.0,30.00,ENE,57,7.0,-999.0,93,-99.99,,,-99.99,,2013-03-08 15:12:00,
2013-03-08 10:22:00,30.0,28.0,30.00,ENE,57,7.0,-999.0,93,-99.99,,,-99.99,,2013-03-08 15:22:00,
2013-03-08 10:32:00,30.0,28.0,30.00,NE,40,5.0,-999.0,92,-99.99,,,-99.99,,2013-03-08 15:32:00,
2013-03-08 10:42:00,30.0,28.0,30.00,NE,40,5.0,-999.0,92,-99.99,,,-99.99,,2013-03-08 15:42:00,
2013-03-08 10:53:00,31.0,29.0,30.00,North,349,5.0,-999.0,93,-99.99,,,-99.99,,2013-03-08 15:53:00,
2013-03-08 11:02:00,31.0,29.0,30.00,North,4,6.0,-999.0,92,-99.99,,,-99.99,,2013-03-08 16:02:00,
2013-03-08 11:12:00,31.0,29.0,30.00,North,4,6.0,-999.0,92,-99.99,,,-99.99,,2013-03-08 16:12:00,
2013-03-08 11:22:00,31.0,29.0,30.01,North,359,7.0,-999.0,92,-99.99,,,-99.99,,2013-03-08 16:22:00,
2013-03-08 11:32:00,31.0,29.0,30.01,North,359,7.0,-999.0,92,-99.99,,,-99.99,,2013-03-08 16:32:00,
2013-03-08 11:42:00,31.0,29.0,30.01,North,359,7.0,-999.0,92,-99.99,,,-99.99,,2013-03-08 16:42:00,
2013-03-08 11:52:00,32.0,30.0,30.01,NNE,28,5.0,-999.0,92,-99.99,,,-99.99,,2013-03-08 16:52:00,
2013-03-08 12:03:00,32.0,30.0,30.01,NE,47,5.0,-999.0,92,-99.99,,,-99.99,,2013-03-08 17:03:00,
2013-03-08 12:12:00,32.0,30.0,30.01,NE,47,5.0,-999.0,92,-99.99,,,-99.99,,2013-03-08 17:12:00,
2013-03-08 12:21:00,32.0,30.0,30.01,NE,39,5.0,-999.0,92,-99.99,,,-99.99,,2013-03-08 17:21:00,
2013-03-08 12:32:00,32.0,30.0,30.01,North,8,6.0,-999.0,93,-99.99,,,-99.99,,2013-03-08 17:32:00,
2013-03-08 12:42:00,32.0,30.0,30.01,North,8,6.0,-999.0,93,-99.99,,,-99.99,,2013-03-08 17:42:00,
2013-03-08 12:52:00,32.0,30.0,30.01,NE,35,6.0,-999.0,93,-99.99,,,-99.99,,2013-03-08 17:52:00,
2013-03-08 13:02:00,33.0,31.0,30.01,NNE,26,6.0,-999.0,93,-99.99,,,-99.99,,2013-03-08 18:02:00,
2013-03-08 13:12:00,33.0,31.0,30.01,NNE,26,6.0,-999.0,93,-99.99,,,-99.99,,2013-03-08 18:12:00,
2013-03-08 13:22:00,33.0,31.0,30.01,NE,49,5.0,-999.0,93,-99.99,,,-99.99,,2013-03-08 18:22:00,
2013-03-08 13:32:00,33.0,31.0,30.01,NE,41,7.0,-999.0,93,-99.99,,,-99.99,,2013-03-08 18:32:00,
2013-03-08 13:42:00,33.0,31.0,30.01,NE,41,7.0,-999.0,93,-99.99,,,-99.99,,2013-03-08 18:42:00,
2013-03-08 13:52:00,33.0,31.0,30.01,NE,41,7.0,-999.0,93,-99.99,,,-99.99,,2013-03-08 18:52:00,
2013-03-08 14:01:00,33.0,31.0,30.01,North,354,8.0,-999.0,93,-99.99,,,-99.99,,2013-03-08 19:01:00,
2013-03-08 14:11:00,33.0,31.0,30.01,North,354,8.0,-999.0,93,-99.99,,,-99.99,,2013-03-08 19:11:00,
2013-03-08 14:22:00,33.0,31.0,30.01,NNE,23,7.0,-999.0,93,-99.99,,,-99.99,,2013-03-08 19:22:00,
2013-03-08 14:32:00,34.0,32.0,30.02,NE,36,5.0,-999.0,93,-99.99,,,-99.99,,2013-03-08 19:32:00,
2013-03-08 14:42:00,34.0,32.0,30.02,NE,36,5.0,-999.0,93,-99.99,,,-99.99,,2013-03-08 19:42:00,
2013-03-08 14:52:00,34.0,32.0,30.02,NE,41,6.0,-999.0,93,-99.99,,,-99.99,,2013-03-08 19:52:00,
2013-03-08 15:01:00,35.0,33.0,30.03,NE,39,6.0,-999.0,93,-99.99,,,-99.99,,2013-03-08 20:01:00,
2013-03-08 15:11:00,35.0,33.0,30.03,NE,39,6.0,-999.0,93,-99.99,,,-99.99,,2013-03-08 20:11:00,
2013-03-08 15:22:00,36.0,34.0,30.03,ENE,68,6.0,-999.0,91,-99.99,,,-99.99,,2013-03-08 20:22:00,
2013-03-08 15:32:00,36.0,33.0,30.03,NE,52,6.0,-999.0,87,-99.99,,,-99.99,,2013-03-08 20:32:00,
2013-03-08 15:42:00,36.0,33.0,30.03,NE,52,6.0,-999.0,87,-99.99,,,-99.99,,2013-03-08 20:42:00,
2013-03-08 15:53:00,37.0,32.0,30.03,NE,42,9.0,-999.0,81,-99.99,,,-99.99,,2013-03-08 20:53:00,
2013-03-08 16:02:00,38.0,32.0,30.05,NE,36,8.0,-999.0,78,-99.99,,,-99.99,,2013-03-08 21:02:00,
2013-03-08 16:11:00,38.0,32.0,30.05,NE,36,8.0,-999.0,78,-99.99,,,-99.99,,2013-03-08 21:11:00,
2013-03-08 16:22:00,38.0,32.0,30.05,NE,36,8.0,-999.0,78,-99.99,,,-99.99,,2013-03-08 21:22:00,
2013-03-08 16:32:00,38.0,31.0,30.05,North,4,8.0,-999.0,75,-99.99,,,-99.99,,2013-03-08 21:32:00,
2013-03-08 16:42:00,38.0,31.0,30.05,North,4,8.0,-999.0,75,-99.99,,,-99.99,,2013-03-08 21:42:00,
2013-03-08 16:52:00,38.0,30.0,30.06,ENE,58,8.0,-999.0,73,-99.99,,,-99.99,,2013-03-08 21:52:00,
2013-03-08 17:02:00,38.0,29.0,30.07,NE,48,7.0,-999.0,70,-99.99,,,-99.99,,2013-03-08 22:02:00,
2013-03-08 17:12:00,38.0,29.0,30.07,NE,48,7.0,-999.0,70,-99.99,,,-99.99,,2013-03-08 22:12:00,
2013-03-08 17:22:00,38.0,28.0,30.08,NNE,33,7.0,-999.0,68,-99.99,,,-99.99,,2013-03-08 22:22:00,
2013-03-08 17:32:00,38.0,28.0,30.08,NNE,25,7.0,-999.0,66,-99.99,,,-99.99,,2013-03-08 22:32:00,
2013-03-08 17:42:00,38.0,28.0,30.08,NNE,25,7.0,-999.0,66,-99.99,,,-99.99,,2013-03-08 22:42:00,
2013-03-08 17:52:00,38.0,28.0,30.09,NE,52,7.0,-999.0,68,-99.99,,,-99.99,,2013-03-08 22:52:00,
2013-03-08 18:02:00,38.0,29.0,30.10,NE,37,8.0,-999.0,69,-99.99,,,-99.99,,2013-03-08 23:02:00,
2013-03-08 18:12:00,38.0,29.0,30.10,NE,37,8.0,-999.0,69,-99.99,,,-99.99,,2013-03-08 23:12:00,
2013-03-08 18:22:00,37.0,28.0,30.11,NE,43,8.0,-999.0,70,-99.99,,,-99.99,,2013-03-08 23:22:00,
2013-03-08 18:32:00,36.0,28.0,30.11,North,10,7.0,-999.0,71,-99.99,,,-99.99,,2013-03-08 23:32:00,
2013-03-08 18:42:00,36.0,28.0,30.11,North,10,7.0,-999.0,71,-99.99,,,-99.99,,2013-03-08 23:42:00,
2013-03-08 18:52:00,36.0,28.0,30.13,NE,39,5.0,-999.0,71,-99.99,,,-99.99,,2013-03-08 23:52:00,
2013-03-08 19:02:00,36.0,28.0,30.14,NNW,329,5.0,-999.0,71,-99.99,,,-99.99,,2013-03-09 00:02:00,
2013-03-08 19:12:00,36.0,28.0,30.14,NNW,329,5.0,-999.0,71,-99.99,,,-99.99,,2013-03-09 00:12:00,
2013-03-08 19:22:00,36.0,28.0,30.14,North,354,5.0,-999.0,71,-99.99,,,-99.99,,2013-03-09 00:22:00,
2013-03-08 19:32:00,36.0,28.0,30.15,NNE,32,3.0,-999.0,71,-99.99,,,-99.99,,2013-03-09 00:32:00,
2013-03-08 19:42:00,36.0,28.0,30.15,NNE,32,3.0,-999.0,71,-99.99,,,-99.99,,2013-03-09 00:42:00,
2013-03-08 19:52:00,36.0,27.0,30.16,NNE,31,4.0,-999.0,69,-99.99,,,-99.99,,2013-03-09 00:52:00,
2013-03-08 20:02:00,36.0,27.0,30.16,NE,41,5.0,-999.0,69,-99.99,,,-99.99,,2013-03-09 01:02:00,
2013-03-08 20:12:00,36.0,26.0,30.16,North,349,6.0,-999.0,66,-99.99,,,-99.99,,2013-03-09 01:12:00,
2013-03-08 20:22:00,36.0,26.0,30.16,North,349,6.0,-999.0,66,-99.99,,,-99.99,,2013-03-09 01:22:00,
2013-03-08 20:32:00,36.0,26.0,30.16,NE,47,5.0,-999.0,66,-99.99,,,-99.99,,2013-03-09 01:32:00,
2013-03-08 20:42:00,36.0,26.0,30.16,NE,47,5.0,-999.0,66,-99.99,,,-99.99,,2013-03-09 01:42:00,
2013-03-08 20:51:00,37.0,26.0,30.16,NNE,26,8.0,-999.0,65,-99.99,,,-99.99,,2013-03-09 01:51:00,
2013-03-08 21:01:00,37.0,25.0,30.17,NNE,24,10.0,-999.0,62,-99.99,,,-99.99,,2013-03-09 02:01:00,
2013-03-08 21:11:00,37.0,25.0,30.17,NNE,24,10.0,-999.0,62,-99.99,,,-99.99,,2013-03-09 02:11:00,
2013-03-08 21:21:00,37.0,24.0,30.17,NE,45,11.0,-999.0,60,-99.99,,,-99.99,,2013-03-09 02:21:00,
2013-03-08 21:31:00,37.0,24.0,30.17,NNE,29,10.0,-999.0,60,-99.99,,,-99.99,,2013-03-09 02:31:00,
2013-03-08 21:41:00,37.0,25.0,30.18,North,359,9.0,-999.0,61,-99.99,,,-99.99,,2013-03-09 02:41:00,
2013-03-08 21:51:00,37.0,25.0,30.18,North,359,9.0,-999.0,61,-99.99,,,-99.99,,2013-03-09 02:51:00,
2013-03-08 22:01:00,36.0,24.0,30.17,NE,56,7.0,-999.0,62,-99.99,,,-99.99,,2013-03-09 03:01:00,
2013-03-08 22:11:00,36.0,24.0,30.17,NE,56,7.0,-999.0,62,-99.99,,,-99.99,,2013-03-09 03:11:00,
2013-03-08 22:22:00,36.0,25.0,30.18,NNE,33,7.0,-999.0,63,-99.99,,,-99.99,,2013-03-09 03:22:00,
2013-03-08 22:31:00,36.0,25.0,30.18,NNE,33,7.0,-999.0,63,-99.99,,,-99.99,,2013-03-09 03:31:00,
2013-03-08 22:41:00,36.0,25.0,30.18,NNE,33,7.0,-999.0,63,-99.99,,,-99.99,,2013-03-09 03:41:00,
2013-03-08 22:52:00,36.0,25.0,30.18,NNE,33,7.0,-999.0,63,-99.99,,,-99.99,,2013-03-09 03:52:00,
2013-03-08 23:01:00,36.0,23.0,30.18,NNE,30,8.0,-999.0,60,-99.99,,,-99.99,,2013-03-09 04:01:00,
2013-03-08 23:11:00,36.0,23.0,30.18,NNE,30,8.0,-999.0,60,-99.99,,,-99.99,,2013-03-09 04:11:00,
2013-03-08 23:22:00,36.0,23.0,30.18,North,9,9.0,-999.0,60,-99.99,,,-99.99,,2013-03-09 04:22:00,
2013-03-08 23:32:00,36.0,23.0,30.18,NE,56,9.0,-999.0,60,-99.99,,,-99.99,,2013-03-09 04:32:00,
2013-03-08 23:42:00,36.0,23.0,30.18,NE,56,9.0,-999.0,60,-99.99,,,-99.99,,2013-03-09 04:42:00,
2013-03-08 23:51:00,36.0,23.0,30.18,NNE,17,10.0,-999.0,59,-99.99,,,-99.99,,2013-03-09 04:51:00,